Cozumel, Mexico

2:15 PM EST on May 29, 2017 (GMT -0500)
Cozumel

Weather History for MMCZ - November, 2014

Change the Weather History Date:

Saturday, November 22, 2014

  Actual Average Record
Temperature  
Mean Temperature 74 °F -  
Max Temperature 80 °F 81 °F 86 °F (1996)
Min Temperature 69 °F 71 °F 64 °F (2016)
Cooling Degree Days 10    
Growing Degree Days 24 (Base 50)    
Moisture  
Dew Point 72 °F    
Average Humidity 93    
Maximum Humidity 100    
Minimum Humidity 79    
Precipitation  
Precipitation 0.00 in - - ()
Sea Level Pressure  
Sea Level Pressure 29.99 in    
Wind  
Wind Speed 2 mph ()    
Max Wind Speed 9 mph    
Max Gust Speed -    
Visibility 7.5 miles    
Events      
Averages and records for this station are not official NWS values.
T = Trace of Precipitation, MM = Missing Value Source: Averaged Metar Reports

Daily Weather History Graph

Daily Weather History Graph

Search for Another Location

Airport or City:

Trip Planner

Search our weather history database for the weather conditions in past years. The results will help you decide how hot, cold, wet, or windy it might be!

Date:

Astronomy

Nov. 22, 2014 Rise Set
Actual Time 6:01 AM CST 5:05 PM CST
Civil Twilight 5:38 AM CST 5:29 PM CST
Nautical Twilight 5:11 AM CST 5:56 PM CST
Astronomical Twilight 4:44 AM CST 6:23 PM CST
Moon 6:02 AM CST (11/22) 5:32 PM CST (11/22)
Length of Visible Light 11h 51m
Length of Day
11h 04m
New Moon, 0% of the Moon is Illuminated
Nov 22
New Moon
Nov 29
First Quarter
Dec 6
Full
Dec 14
Last Quarter
Dec 21
New

Hourly Weather History & Observations

Time (CST) Temp. Heat Index Dew Point Humidity Pressure Visibility Wind Dir Wind Speed Gust Speed Precip Events Conditions
12:43 AM 73.4 °F - 71.6 °F 94% 30.03 in 7.0 mi Calm Calm - N/A   Scattered Clouds
1:43 AM 71.6 °F - 71.6 °F 100% 30.02 in 7.0 mi Calm Calm - N/A   Scattered Clouds
3:56 AM 71.6 °F - 71.6 °F 100% 30.00 in 7.0 mi Calm Calm - N/A   Scattered Clouds
5:13 AM 71.6 °F - 71.6 °F 100% 30.00 in 7.0 mi Calm Calm - N/A   Scattered Clouds
5:45 AM 69.8 °F - 69.8 °F 100% 29.97 in 7.0 mi Calm Calm - N/A   Scattered Clouds
6:40 AM 71.6 °F - 71.6 °F 100% 30.03 in 7.0 mi Calm Calm - N/A   Partly Cloudy
7:42 AM 75.2 °F - 73.4 °F 94% 30.04 in 8.0 mi Calm Calm - N/A   Scattered Clouds
8:40 AM 77.0 °F - 75.2 °F 94% 30.08 in 8.0 mi ESE 9.2 mph - N/A   Scattered Clouds
9:40 AM 78.8 °F - 73.4 °F 83% 30.06 in 8.0 mi ESE 6.9 mph - N/A   Mostly Cloudy
10:40 AM 80.6 °F 85.4 °F 73.4 °F 79% 30.04 in 8.0 mi SE 6.9 mph - N/A   Mostly Cloudy
11:41 AM 80.6 °F 87.1 °F 77.0 °F 89% 30.00 in 8.0 mi ESE 6.9 mph - N/A   Mostly Cloudy
12:42 PM 80.6 °F 85.4 °F 73.4 °F 79% 29.98 in 8.0 mi ESE 9.2 mph - N/A   Mostly Cloudy
1:40 PM 80.6 °F 85.4 °F 73.4 °F 79% 29.98 in 8.0 mi East 9.2 mph - N/A   Mostly Cloudy
2:40 PM 80.6 °F 85.4 °F 73.4 °F 79% 29.97 in 8.0 mi SE 8.1 mph - N/A   Mostly Cloudy
3:51 PM 78.8 °F - 73.4 °F 83% 29.93 in 8.0 mi SE 5.8 mph - N/A   Mostly Cloudy
4:49 PM 77.0 °F - 73.4 °F 89% 29.93 in 8.0 mi SE 4.6 mph - N/A   Scattered Clouds
5:45 PM 73.4 °F - 73.4 °F 100% 29.93 in 8.0 mi Calm Calm - N/A   Scattered Clouds
6:40 PM 71.6 °F - 71.6 °F 100% 29.96 in 7.0 mi Calm Calm - N/A   Partly Cloudy
7:41 PM 71.6 °F - 71.6 °F 100% 29.97 in 7.0 mi Calm Calm - N/A   Partly Cloudy
8:46 PM 69.8 °F - 69.8 °F 100% 29.99 in 7.0 mi Calm Calm - N/A   Partly Cloudy
9:43 PM 69.8 °F - 69.8 °F 100% 29.97 in 7.0 mi Calm Calm - N/A   Partly Cloudy
10:44 PM 69.8 °F - 69.8 °F 100% 29.96 in 7.0 mi Calm Calm - N/A   Partly Cloudy
11:45 PM 69.8 °F - 69.8 °F 100% 29.94 in 7.0 mi Calm Calm - N/A   Partly Cloudy